Regional Weather Roundup
Issued by NWS

Home | Current Version | Previous Version | Graphics & Text | Print | Product List | Glossary On
Versions: 1 2 3 4 5 6 7 8 9 10 11 12 13 14 15 16 17 18 19 20 21 22 23 24 25 26 27 28 29 30 31 32 33 34 35 36 37 38 39 40 41 42 43 44 45 46 47 48 49 50
000
ASUS45 KCYS 100810
RWRWY

WYOMING REGIONAL WEATHER ROUNDUP
NATIONAL WEATHER SERVICE CHEYENNE WY
100 AM MST WED FEB 10 2016

NOTE:  "FAIR" INDICATES FEW OR NO CLOUDS BELOW 12,000 FEET
WITH NO SIGNIFICANT WEATHER AND/OR OBSTRUCTIONS TO VISIBILITY.

WYZ001-100900-
YELLOWSTONE NATIONAL PARK

CITY           SKY/WX    TMP DP  RH WIND       PRES   REMARKS
LK YELLOWSTONE   N/A      9   5  84 CALM      30.42F
W YELLOWSTONE  NOT AVBL

$$
WYZ002>013-054>058-071-098>099-100900-
NORTHERN WYOMING

CITY           SKY/WX    TMP DP  RH WIND       PRES   REMARKS
JACKSON        FAIR       3   3 100 N8        30.44F WCI -10
CODY           FAIR      52  14  22 W13G21    30.15F
GREYBULL       FAIR      24  22  91 CALM      30.19F
WORLAND        FAIR      25  21  85 SW3       30.19F
SHERIDAN       FAIR      30  20  66 S5        30.03F WCI  25
BUFFALO        FAIR      44  17  33 W7        30.07F
GILLETTE       FAIR      41  22  46 SW18      30.04F
HULETT         FAIR      39  28  65 SW12      30.01F WCI  32
NEWCASTLE      FAIR      30  25  80 NE3       30.06F

$$
WYZ014>020-022>026-101>103-100900-
CENTRAL WYOMING

CITY           SKY/WX    TMP DP  RH WIND       PRES   REMARKS
BIG PINEY      FAIR      18  13  80 NE3       30.40F
PINEDALE       FAIR      14  12  92 NW5       30.41F WCI   6
DUBOIS         FAIR      32  14  47 NW20      30.32F WCI  20
LANDER         FAIR      23  16  74 W3        30.25S
RIVERTON       FAIR      20  15  81 NW3       30.26F
CASPER         FAIR      36  22  56 SW25G32   30.18F WCI  24
DOUGLAS        FAIR      35  23  61 W8          N/A  WCI  29

$$
WYZ021-027>030-104>119-100900-
SOUTHERN WYOMING

CITY           SKY/WX    TMP DP  RH WIND       PRES   REMARKS
EVANSTON       FAIR      27  19  72 SE6       30.42F WCI  20
FORT BRIDGER   SUNNY     34  12  40 W14       30.43F WCI  24
ROCK SPRINGS   FAIR      30  19  63 W16       30.37F WCI  19
DIXON          FAIR      15   9  79 CALM      30.45S
RAWLINS        FAIR      33  17  51 W8        30.36S WCI  26
SARATOGA       FAIR      19  12  73 SW3       30.37F
LARAMIE        FAIR      29  12  49 W5        30.27F WCI  24
CHEYENNE       FAIR      40  16  37 W18       30.17F WCI  31
TORRINGTON     FAIR      32  24  72 W7        30.10F WCI  26
PINE BLUFFS    FAIR      28  21  74 W9        30.16F WCI  20

$$



USA.gov is the U.S. government's official web portal to all federal, state and local government web resources and services.